Flag for Germany Weather past 2 weeks in Weimar, Thuringia, Germany

36 °F

Passing clouds.

Feels Like: 29 °F
Forecast: 28 / 40 °F
Wind: 9 mph from West

Location: Erfurt-Bindersleben

Current Time: Nov 26, 2015 at 1:14:28 AM

Latest Report: Nov 26, 2015 at 12:50 AM

Visibility: N/A

Pressure: 29.74 "Hg

Humidity: 93%

Dew point: 34 °F

Location of WeimarLocation

Historic Weather in Weimar — Graph


Weimar temperature yesterday

Maximum temperature yesterday: 37 °F (at 10:20 AM)
Minimum temperature yesterday: 34 °F (at 12:20 AM)
Average temperature yesterday: 35 °F

Past Weeks' High & Low Weather Summary

High59 °F (Nov 11, 12:50 PM)100% (Nov 21, 10:20 PM)30.30 "Hg (Nov 21, 10:20 PM)
Low28 °F (Nov 22, 6:50 AM)58% (Nov 18, 11:50 AM)29.39 "Hg (Nov 21, 4:50 AM)
Average45 °F81%29.91 "Hg
* Reported Nov 11 12:50 AM — Nov 26 12:20 AM, Weimar, Weather by CustomWeather, © 2015

Note: Actual official high and low records may vary slightly from our data, if they occured in-between our weather recording intervals... More about our weather records


Weimar weather history for previous 24 hours

Time TempWeatherWind HumidityBarometerVisibility
12:20 AM
Thu, Nov 26
36 °FPassing clouds.8 mph93%29.71 "HgN/A
11:50 PM
Wed, Nov 25
36 °FOvercast.8 mph93%29.71 "HgN/A
11:20 PM36 °FPassing clouds.9 mph93%29.71 "HgN/A
10:50 PM36 °FPassing clouds.10 mph93%29.71 "HgN/A
10:20 PM36 °FPassing clouds.9 mph93%29.71 "HgN/A
9:50 PM36 °FPassing clouds.10 mph93%29.71 "HgN/A
9:20 PM36 °FPassing clouds.10 mph87%29.71 "HgN/A
8:50 PM36 °FPassing clouds.9 mph87%29.68 "HgN/A
8:20 PM36 °FPassing clouds.9 mph87%29.68 "HgN/A
7:50 PM36 °FPassing clouds.6 mph87%29.68 "HgN/A
7:20 PM36 °FPassing clouds.9 mph87%29.68 "HgN/A
6:50 PM34 °FPartly cloudy.10 mph93%29.68 "HgN/A
6:20 PM36 °FPartly cloudy.12 mph87%29.68 "HgN/A
5:50 PM36 °FPassing clouds.13 mph87%29.68 "HgN/A
5:20 PM36 °FPartly cloudy.12 mph87%29.65 "HgN/A
4:50 PM36 °FPassing clouds.10 mph87%29.68 "HgN/A
4:20 PM37 °FPassing clouds.10 mph81%29.65 "HgN/A
3:50 PM37 °FLight rain. Partly sunny.14 mph81%29.65 "HgN/A
3:20 PM37 °FLight rain. Partly sunny.12 mph81%29.65 "HgN/A
2:50 PM37 °FLight rain. Partly sunny.6 mph81%29.65 "HgN/A
2:20 PM37 °FLight rain. Partly sunny.8 mph81%29.65 "HgN/A
1:50 PM37 °FLight rain. Partly sunny.9 mph81%29.65 "HgN/A
1:20 PM37 °FLight rain. Partly sunny.10 mph81%29.65 "HgN/A
12:50 PM37 °FLight rain. Partly sunny.10 mph81%29.68 "HgN/A
12:20 PM37 °FPartly sunny.9 mph81%29.68 "HgN/A
11:50 AM37 °FPartly sunny.10 mph81%29.68 "HgN/A
11:20 AM37 °FPartly sunny.12 mph81%29.68 "HgN/A
10:50 AM37 °FPartly sunny.9 mph81%29.68 "HgN/A
10:20 AM37 °FBroken clouds.8 mph75%29.68 "HgN/A
9:50 AM36 °FPartly sunny.12 mph81%29.68 "HgN/A
9:20 AM36 °FPartly sunny.12 mph81%29.68 "HgN/A
8:50 AM36 °FPartly sunny.14 mph75%29.68 "HgN/A
8:20 AM34 °FBroken clouds.15 mph81%29.68 "HgN/A
7:50 AM34 °FLight snow. Partly sunny.13 mph81%29.68 "HgN/A
7:20 AM34 °FPassing clouds.13 mph81%29.68 "HgN/A
6:50 AM34 °FPartly cloudy.9 mph81%29.68 "HgN/A
6:20 AM34 °FPartly cloudy.8 mph81%29.71 "HgN/A
5:50 AM34 °FPartly cloudy.8 mph81%29.71 "HgN/A
5:20 AM34 °FPartly cloudy.9 mph81%29.71 "HgN/A
4:20 AM34 °FPartly cloudy.12 mph81%29.71 "HgN/A
3:50 AM34 °FPassing clouds.15 mph81%29.71 "HgN/A
3:20 AM34 °FPartly cloudy.16 mph81%29.74 "HgN/A
2:50 AM34 °FPartly cloudy.16 mph81%29.74 "HgN/A
2:20 AM34 °FPartly cloudy.15 mph81%29.74 "HgN/A
1:20 AM34 °FMostly cloudy.16 mph81%29.77 "HgN/A
Weather by CustomWeather, © 2015

See weather overviewHow to use our weather pages